DW5812 Weather Reports


Display with metric or nautical units.
time (UTC)temp
F
wind
direction
speed
MPH
gust
MPH
rain 1hr
in
rain 24hr
in
rain mn
in
humidity
%
barometer
mb
20200123170619 80 77 6.0 11.0 0.00 0.11 0.00 83 1014.6
20200123170120 80 80 7.0 14.0 0.00 0.11 0.00 82 1014.7
20200123165619 80 88 8.0 14.0 0.00 0.11 0.00 82 1014.6
20200123165119 80 93 7.0 14.0 0.00 0.11 0.00 82 1014.6
20200123164619 80 95 7.0 14.0 0.00 0.11 0.00 81 1014.7
20200123164119 80 90 6.0 13.0 0.00 0.12 0.00 81 1014.6
20200123163620 80 85 6.0 11.0 0.00 0.12 0.00 81 1014.7
20200123163120 80 77 5.0 11.0 0.00 0.12 0.00 82 1014.7
20200123162620 80 68 5.0 11.0 0.00 0.12 0.00 82 1014.7
20200123162119 80 71 6.0 11.0 0.00 0.12 0.00 83 1014.7
20200123161620 80 70 7.0 14.0 0.00 0.12 0.00 83 1014.7
20200123161119 80 65 7.0 14.0 0.00 0.12 0.00 83 1014.7
20200123160619 80 71 6.0 12.0 0.00 0.12 0.00 85 1014.8
20200123160120 79 78 5.0 11.0 0.00 0.12 0.00 85 1014.8
20200123155619 79 90 6.0 11.0 0.00 0.12 0.00 85 1014.8
20200123155119 79 100 7.0 11.0 0.00 0.12 0.00 84 1014.8
20200123154620 80 102 6.0 12.0 0.00 0.12 0.00 83 1014.8
20200123154119 80 105 7.0 13.0 0.00 0.12 0.00 83 1014.8
20200123153620 80 102 8.0 14.0 0.00 0.12 0.00 82 1014.9
20200123153120 79 102 7.0 14.0 0.00 0.12 0.00 81 1015.1
20200123152620 79 103 7.0 16.0 0.00 0.12 0.00 80 1015.2
20200123152120 79 101 8.0 16.0 0.00 0.12 0.00 79 1015.3
20200123151620 79 101 9.0 16.0 0.00 0.12 0.00 80 1015.3
20200123151119 78 103 10.0 17.0 0.00 0.12 0.00 82 1015.4
20200123150619 78 101 10.0 20.0 0.00 0.12 0.00 86 1015.5
20200123150121 78 102 11.0 20.0 0.00 0.12 0.00 87 1015.6
20200123145619 78 107 11.0 19.0 0.00 0.12 0.00 86 1015.6
20200123145119 77 106 11.0 20.0 0.00 0.12 0.00 86 1015.6
20200123144620 77 105 12.0 20.0 0.00 0.12 0.00 87 1015.6
20200123144119 77 101 13.0 20.0 0.00 0.12 0.00 89 1015.5
20200123143619 78 100 12.0 20.0 0.00 0.12 0.00 89 1015.7
20200123143121 78 104 11.0 19.0 0.00 0.12 0.00 88 1015.7
20200123142619 79 103 10.0 23.0 0.00 0.12 0.00 88 1015.6
20200123142119 79 104 8.0 23.0 0.00 0.12 0.00 88 1015.7
20200123141620 78 111 7.0 13.0 0.00 0.12 0.00 88 1015.6
20200123141119 78 112 6.0 12.0 0.00 0.12 0.00 88 1015.6
20200123140619 78 111 7.0 15.0 0.00 0.12 0.00 88 1015.6
20200123140121 78 105 8.0 15.0 0.00 0.12 0.00 87 1015.8
20200123135619 78 100 9.0 17.0 0.00 0.12 0.12 86 1015.9
20200123135119 78 101 9.0 17.0 0.00 0.12 0.12 86 1015.9
20200123134621 78 101 8.0 16.0 0.00 0.12 0.12 88 1015.8
20200123134119 78 103 9.0 14.0 0.00 0.12 0.12 89 1015.9
20200123133619 78 103 9.0 15.0 0.00 0.12 0.12 89 1015.9
20200123133120 78 101 9.0 15.0 0.00 0.12 0.12 90 1015.9
20200123132619 78 98 9.0 15.0 0.00 0.12 0.12 90 1016.0
20200123132120 79 98 10.0 18.0 0.00 0.12 0.12 90 1016.0
20200123131620 79 101 9.0 18.0 0.00 0.12 0.12 90 1015.9
20200123131119 79 93 8.0 15.0 0.00 0.12 0.12 89 1016.1
20200123130620 79 80 7.0 12.0 0.00 0.12 0.12 89 1016.0
20200123130120 79 87 7.0 15.0 0.00 0.12 0.12 89 1016.1
20200123125619 79 89 7.0 15.0 0.00 0.12 0.12 89 1016.1
20200123125120 79 86 7.0 13.0 0.00 0.12 0.12 89 1016.1
20200123124620 79 83 7.0 13.0 0.00 0.12 0.12 89 1016.1
20200123124120 79 72 6.0 13.0 0.00 0.12 0.12 89 1016.1
20200123123619 79 71 6.0 13.0 0.00 0.12 0.12 89 1016.2
20200123123120 79 65 6.0 13.0 0.00 0.12 0.12 89 1016.1
20200123122620 79 60 7.0 11.0 0.00 0.12 0.12 88 1016.2
20200123122119 79 63 7.0 12.0 0.00 0.12 0.12 88 1016.1
20200123121620 79 59 6.0 12.0 0.01 0.12 0.12 89 1016.1
20200123121120 79 44 5.0 12.0 0.01 0.12 0.12 89 1016.0
20200123120619 78 36 5.0 11.0 0.02 0.12 0.12 90 1016.1
20200123120120 78 45 5.0 11.0 0.02 0.12 0.12 90 1016.1
20200123115620 78 45 4.0 9.0 0.02 0.12 0.12 90 1016.1
20200123115119 78 45 4.0 8.0 0.05 0.12 0.12 91 1016.1
20200123114620 78 53 4.0 9.0 0.05 0.12 0.12 91 1016.1
20200123114120 78 63 5.0 9.0 0.05 0.12 0.12 91 1016.1
20200123113619 78 75 6.0 12.0 0.05 0.12 0.12 91 1016.1
20200123113120 78 90 6.0 12.0 0.05 0.12 0.12 91 1016.1
20200123112620 77 101 6.0 12.0 0.05 0.12 0.12 91 1016.0
20200123112119 77 90 7.0 11.0 0.05 0.12 0.12 91 1016.1
20200123111620 78 63 6.0 13.0 0.04 0.11 0.11 91 1016.1
20200123111120 78 52 5.0 13.0 0.04 0.11 0.11 91 1016.0
20200123110619 78 61 5.0 12.0 0.03 0.10 0.10 91 1016.0
20200123110120 79 79 7.0 14.0 0.03 0.10 0.10 90 1016.0
20200123105619 79 89 8.0 14.0 0.03 0.10 0.10 88 1015.9
20200123105119 80 86 8.0 14.0 0.00 0.07 0.07 85 1015.8
20200123104620 80 84 7.0 14.0 0.00 0.07 0.07 84 1015.7
20200123104119 80 72 7.0 13.0 0.00 0.07 0.07 84 1015.7
20200123103620 80 69 7.0 12.0 0.00 0.07 0.07 84 1015.6
20200123103120 80 80 7.0 13.0 0.00 0.07 0.07 84 1015.6
20200123102619 80 69 8.0 15.0 0.00 0.07 0.07 84 1015.5
20200123102120 80 60 8.0 17.0 0.00 0.07 0.07 84 1015.5
20200123101620 80 72 7.0 17.0 0.00 0.07 0.07 85 1015.5
20200123101120 80 85 7.0 16.0 0.00 0.07 0.07 86 1015.3
20200123100620 80 82 7.0 14.0 0.00 0.07 0.07 86 1015.3
20200123100120 80 76 7.0 14.0 0.01 0.07 0.07 85 1015.2
20200123095620 80 72 7.0 14.0 0.01 0.07 0.07 85 1015.2
20200123095120 80 76 6.0 13.0 0.01 0.07 0.07 85 1015.1
20200123094621 80 81 6.0 13.0 0.01 0.07 0.07 86 1015.0
20200123094120 80 80 6.0 13.0 0.01 0.07 0.07 86 1014.8
20200123093619 79 81 6.0 12.0 0.01 0.07 0.07 86 1014.8
20200123093120 79 85 6.0 11.0 0.01 0.07 0.07 86 1014.8
20200123092620 79 92 6.0 12.0 0.01 0.07 0.07 87 1014.8
20200123092119 79 83 7.0 15.0 0.01 0.07 0.07 87 1014.7
20200123091620 79 79 7.0 15.0 0.01 0.07 0.07 87 1014.7
20200123091119 79 86 8.0 17.0 0.01 0.07 0.07 87 1014.5
20200123090619 80 87 8.0 17.0 0.00 0.06 0.06 86 1014.5
20200123090121 80 83 8.0 14.0 0.00 0.06 0.06 85 1014.4
20200123085619 80 71 7.0 13.0 0.00 0.06 0.06 84 1014.3
20200123085119 80 62 7.0 14.0 0.00 0.06 0.06 84 1014.3
20200123084620 80 71 9.0 18.0 0.00 0.06 0.06 83 1014.1
20200123084119 80 75 8.0 18.0 0.00 0.06 0.06 83 1014.0
20200123083620 80 71 8.0 17.0 0.00 0.06 0.06 84 1014.0
20200123083120 80 71 8.0 18.0 0.00 0.06 0.06 84 1014.0
20200123082619 80 66 7.0 18.0 0.00 0.06 0.06 85 1013.9
20200123082120 80 68 6.0 14.0 0.00 0.06 0.06 85 1013.9
20200123081620 80 80 6.0 15.0 0.00 0.06 0.06 85 1013.8
20200123081120 80 78 6.0 15.0 0.00 0.06 0.06 85 1013.7
20200123080619 80 77 6.0 13.0 0.00 0.06 0.06 85 1013.7
20200123080120 80 74 8.0 17.0 0.00 0.06 0.06 85 1013.7
20200123075620 80 66 9.0 17.0 0.00 0.06 0.06 84 1013.7
20200123075119 80 67 10.0 20.0 0.00 0.06 0.06 83 1013.6
20200123074620 81 71 8.0 20.0 0.00 0.06 0.06 83 1013.7
20200123074119 81 67 7.0 15.0 0.00 0.06 0.06 83 1013.6
20200123073619 81 66 7.0 13.0 0.00 0.06 0.06 84 1013.5
20200123073121 81 74 8.0 22.0 0.00 0.06 0.06 84 1013.5
20200123072619 81 77 9.0 22.0 0.00 0.06 0.06 84 1013.5
20200123072120 81 78 9.0 20.0 0.00 0.06 0.06 83 1013.5
20200123071621 81 86 8.0 16.0 0.00 0.06 0.06 83 1013.5
20200123071119 81 91 9.0 19.0 0.00 0.06 0.06 85 1013.4
20200123070620 82 81 10.0 19.0 0.00 0.06 0.06 84 1013.4
20200123070120 82 76 10.0 20.0 0.00 0.06 0.06 81 1013.3
20200123065620 83 81 10.0 20.0 0.00 0.06 0.06 79 1013.3
20200123065120 83 80 10.0 20.0 0.00 0.06 0.06 78 1013.2
20200123064620 83 83 9.0 20.0 0.00 0.06 0.06 79 1013.2
20200123064120 83 79 8.0 16.0 0.00 0.06 0.06 78 1013.2
20200123063620 83 79 9.0 20.0 0.00 0.06 0.06 78 1013.2
20200123063120 83 83 10.0 20.0 0.00 0.06 0.06 78 1013.2
20200123062620 84 86 10.0 20.0 0.00 0.06 0.06 78 1013.2
20200123062120 83 79 9.0 17.0 0.00 0.06 0.06 78 1013.1
20200123061620 83 68 9.0 19.0 0.00 0.06 0.06 78 1013.2
20200123061120 83 73 9.0 19.0 0.00 0.06 0.06 77 1013.2
20200123060620 83 69 9.0 19.0 0.00 0.06 0.06 79 1013.1
20200123060120 82 59 10.0 20.0 0.00 0.06 0.06 78 1013.2
20200123055620 83 58 11.0 22.0 0.00 0.06 0.06 77 1013.2
20200123055120 83 80 10.0 24.0 0.00 0.06 0.06 76 1013.1
20200123054620 83 81 10.0 24.0 0.00 0.06 0.06 76 1013.1
20200123054120 83 72 10.0 20.0 0.00 0.06 0.06 75 1013.2
20200123053620 84 78 10.0 19.0 0.00 0.06 0.06 75 1013.1
20200123053120 84 83 11.0 21.0 0.00 0.06 0.06 73 1013.1
20200123052620 84 91 13.0 24.0 0.00 0.06 0.06 74 1013.1
20200123052119 84 91 12.0 24.0 0.00 0.06 0.06 73 1013.2
20200123051621 84 83 8.0 21.0 0.00 0.06 0.06 74 1013.2
20200123051119 84 66 10.0 20.0 0.00 0.06 0.06 76 1013.2
20200123050620 84 62 12.0 20.0 0.00 0.06 0.06 76 1013.2
20200123050120 84 66 13.0 24.0 0.00 0.06 0.06 77 1013.1
20200123045620 84 69 13.0 25.0 0.00 0.06 0.06 75 1013.2
20200123045120 84 71 13.0 25.0 0.00 0.06 0.06 74 1013.3
20200123044620 84 65 11.0 23.0 0.00 0.06 0.06 74 1013.3
20200123044120 84 29 11.0 23.0 0.00 0.06 0.06 76 1013.4
20200123043620 84 23 11.0 21.0 0.00 0.06 0.06 77 1013.5
20200123043120 84 54 11.0 19.0 0.00 0.06 0.06 78 1013.7
20200123042620 83 46 11.0 21.0 0.00 0.06 0.06 77 1013.8
20200123042120 84 41 10.0 21.0 0.00 0.06 0.06 76 1013.8
20200123041620 84 65 11.0 21.0 0.00 0.06 0.06 76 1013.8
20200123041120 84 75 10.0 21.0 0.00 0.06 0.06 76 1013.9
20200123040620 84 67 9.0 19.0 0.00 0.06 0.06 75 1013.9
20200123040120 84 70 10.0 22.0 0.00 0.06 0.06 77 1014.0
20200123035620 83 79 11.0 22.0 0.00 0.06 0.06 78 1014.0
20200123035120 83 77 12.0 21.0 0.00 0.06 0.06 79 1014.1
20200123034620 84 75 10.0 21.0 0.00 0.06 0.06 77 1014.2
20200123034120 84 77 9.0 18.0 0.00 0.06 0.06 75 1014.3
20200123033619 84 77 11.0 21.0 0.00 0.06 0.06 77 1014.3
20200123033121 84 74 10.0 21.0 0.00 0.06 0.06 76 1014.4
20200123032620 84 66 9.0 21.0 0.00 0.06 0.06 76 1014.4
20200123032119 84 71 9.0 21.0 0.00 0.06 0.06 76 1014.5
20200123031621 85 88 10.0 20.0 0.00 0.06 0.06 75 1014.5
20200123031120 84 85 13.0 24.0 0.00 0.06 0.06 76 1014.6
20200123030619 84 86 14.0 24.0 0.00 0.06 0.06 76 1014.7
20200123030121 84 90 13.0 23.0 0.00 0.06 0.06 76 1014.8
20200123025620 84 82 13.0 20.0 0.00 0.06 0.06 78 1014.9
20200123025119 83 77 13.0 29.0 0.00 0.06 0.06 79 1015.0
20200123024621 83 82 13.0 29.0 0.00 0.06 0.06 77 1015.1
20200123024120 84 87 11.0 21.0 0.00 0.06 0.06 76 1015.2
20200123023619 84 83 10.0 25.0 0.00 0.06 0.06 76 1015.1
20200123023121 84 71 10.0 25.0 0.00 0.06 0.06 79 1015.3
20200123022619 83 71 8.0 20.0 0.00 0.06 0.06 85 1015.3
20200123022120 82 85 11.0 23.0 0.00 0.06 0.06 86 1015.4
20200123021621 82 90 14.0 24.0 0.00 0.06 0.06 83 1015.5
20200123021119 84 90 15.0 27.0 0.00 0.06 0.06 78 1015.5
20200123020620 84 89 14.0 27.0 0.00 0.06 0.06 76 1015.6
20200123020120 84 86 13.0 24.0 0.00 0.06 0.06 77 1015.7
20200123015619 84 92 15.0 24.0 0.00 0.06 0.06 78 1015.8
20200123015120 84 100 16.0 26.0 0.00 0.06 0.06 78 1016.0
20200123014620 84 94 13.0 26.0 0.00 0.06 0.06 75 1015.9
20200123014120 85 86 10.0 24.0 0.00 0.06 0.06 76 1016.0
20200123013620 85 94 13.0 27.0 0.00 0.06 0.06 76 1016.1
20200123013120 84 94 14.0 27.0 0.00 0.06 0.06 77 1016.1
20200123012620 84 83 12.0 24.0 0.00 0.06 0.06 76 1016.2
20200123012120 84 88 12.0 24.0 0.00 0.06 0.06 76 1016.3
20200123011620 84 93 10.0 21.0 0.00 0.06 0.06 76 1016.3
20200123011120 84 73 9.0 22.0 0.00 0.06 0.06 77 1016.4
20200123010619 84 53 10.0 22.0 0.00 0.06 0.06 79 1016.5
20200123010121 83 58 10.0 18.0 0.00 0.06 0.06 79 1016.4
20200123005619 84 79 8.0 19.0 0.01 0.06 0.06 80 1016.4
20200123005119 83 90 9.0 19.0 0.01 0.06 0.06 83 1016.5
20200123004620 82 92 10.0 18.0 0.01 0.06 0.06 85 1016.6
20200123004120 82 94 10.0 17.0 0.01 0.06 0.06 86 1016.8
20200123003619 82 99 11.0 20.0 0.01 0.06 0.06 85 1016.8
20200123003121 82 97 11.0 24.0 0.01 0.06 0.06 84 1016.8
20200123002619 82 93 11.0 24.0 0.01 0.06 0.06 82 1016.8
20200123002120 82 94 8.0 20.0 0.01 0.06 0.06 84 1016.9
20200123001620 82 83 6.0 19.0 0.01 0.06 0.06 87 1016.9
20200123001120 81 78 8.0 16.0 0.01 0.06 0.06 88 1016.9
20200123000620 81 80 9.0 16.0 0.01 0.06 0.06 87 1017.0
20200123000120 81 80 8.0 15.0 0.00 0.05 0.05 85 1017.1
20200122235620 81 91 9.0 17.0 0.00 0.05 0.05 85 1017.2
20200122235119 81 95 12.0 23.0 0.00 0.05 0.05 84 1017.2
20200122234621 82 90 11.0 24.0 0.00 0.05 0.05 83 1017.2
20200122234120 82 84 10.0 24.0 0.00 0.05 0.05 82 1017.2
20200122233620 82 86 9.0 18.0 0.00 0.06 0.05 83 1017.2
20200122233121 82 90 9.0 19.0 0.00 0.06 0.05 83 1017.2
20200122232620 82 90 11.0 24.0 0.02 0.06 0.05 84 1017.2
20200122232120 81 88 11.0 24.0 0.03 0.06 0.05 84 1017.2
20200122231621 81 94 9.0 15.0 0.03 0.06 0.05 84 1017.3
20200122231120 81 98 11.0 17.0 0.03 0.06 0.05 84 1017.3
20200122230619 81 95 12.0 19.0 0.03 0.06 0.05 84 1017.3
20200122230121 81 98 11.0 19.0 0.03 0.06 0.05 84 1017.3
20200122225619 80 95 8.0 18.0 0.03 0.06 0.05 86 1017.2
20200122225120 80 80 8.0 16.0 0.03 0.06 0.05 89 1017.1
20200122224620 79 78 8.0 16.0 0.03 0.06 0.05 88 1017.1
20200122224120 79 84 9.0 17.0 0.03 0.06 0.05 89 1017.0
20200122223619 79 71 10.0 18.0 0.03 0.06 0.05 88 1017.0
20200122223121 79 69 10.0 18.0 0.03 0.06 0.05 86 1017.0
20200122222620 81 85 10.0 18.0 0.01 0.04 0.03 84 1016.9
20200122222119 81 88 11.0 22.0 0.00 0.03 0.02 85 1016.7
20200122221621 80 85 10.0 22.0 0.00 0.03 0.02 85 1016.7
20200122221119 80 82 8.0 17.0 0.00 0.03 0.02 86 1016.7
20200122220620 80 90 8.0 15.0 0.00 0.03 0.02 87 1016.7
20200122220121 80 95 9.0 16.0 0.00 0.03 0.02 87 1016.7
20200122215620 79 94 9.0 16.0 0.00 0.03 0.02 88 1016.6
20200122215120 79 89 8.0 16.0 0.00 0.03 0.02 88 1016.6
20200122214620 79 86 8.0 16.0 0.01 0.03 0.02 87 1016.4
20200122214120 79 84 9.0 16.0 0.01 0.03 0.02 87 1016.4
20200122213620 78 81 9.0 15.0 0.01 0.03 0.02 86 1016.3
20200122213120 78 81 10.0 18.0 0.01 0.03 0.02 87 1016.3
20200122212620 78 77 10.0 18.0 0.01 0.03 0.02 87 1016.2
20200122212120 78 72 9.0 15.0 0.01 0.03 0.02 89 1016.2
20200122211620 78 76 10.0 17.0 0.01 0.03 0.02 89 1016.2
20200122211120 78 82 9.0 18.0 0.01 0.03 0.02 89 1016.2
20200122210620 78 75 9.0 18.0 0.01 0.03 0.02 89 1016.1
20200122210120 78 69 9.0 15.0 0.01 0.03 0.02 90 1016.1
20200122205620 79 80 8.0 15.0 0.01 0.03 0.02 90 1016.0
20200122205120 79 90 9.0 15.0 0.01 0.03 0.02 90 1016.0
20200122204620 79 88 9.0 14.0 0.00 0.02 0.01 89 1015.8
20200122204120 79 84 8.0 16.0 0.00 0.02 0.01 88 1015.7
20200122203620 79 80 8.0 16.0 0.00 0.02 0.01 88 1015.7
20200122203120 79 82 8.0 16.0 0.00 0.02 0.01 88 1015.7
20200122202620 79 84 8.0 16.0 0.00 0.02 0.01 88 1015.6
20200122202120 79 82 8.0 14.0 0.00 0.02 0.01 88 1015.5
20200122201620 80 80 8.0 14.0 0.00 0.02 0.01 87 1015.5
20200122201120 80 84 8.0 17.0 0.00 0.02 0.01 86 1015.4
20200122200620 80 84 8.0 17.0 0.00 0.03 0.01 86 1015.3
20200122200121 80 82 8.0 16.0 0.00 0.03 0.01 86 1015.3
20200122195620 80 79 7.0 13.0 0.00 0.03 0.01 86 1015.3
20200122195120 80 78 7.0 13.0 0.00 0.03 0.01 86 1015.2
20200122194621 80 74 8.0 17.0 0.00 0.03 0.01 86 1015.2
20200122194120 80 75 9.0 17.0 0.00 0.03 0.01 86 1015.2
20200122193620 80 83 9.0 16.0 0.00 0.03 0.01 86 1015.2
20200122193121 80 88 8.0 17.0 0.00 0.03 0.01 87 1015.2
20200122192620 80 86 9.0 17.0 0.00 0.03 0.01 87 1015.1
20200122192120 79 82 9.0 16.0 0.00 0.04 0.01 87 1015.1
20200122191621 79 81 8.0 14.0 0.00 0.04 0.01 87 1015.1
20200122191120 79 78 8.0 15.0 0.00 0.04 0.01 87 1015.0
20200122190620 79 76 9.0 17.0 0.00 0.04 0.01 86 1015.0
20200122190121 80 70 8.0 17.0 0.00 0.04 0.01 85 1015.1
20200122185620 80 61 8.0 15.0 0.00 0.04 0.01 85 1015.0
20200122185119 80 66 7.0 13.0 0.00 0.04 0.01 87 1015.0
20200122184621 80 72 7.0 13.0 0.00 0.04 0.01 87 1015.0
20200122184119 80 70 7.0 13.0 0.00 0.05 0.01 87 1015.0
20200122183620 80 69 6.0 12.0 0.00 0.05 0.01 87 1014.9
20200122183120 80 69 7.0 12.0 0.00 0.05 0.01 87 1014.9
20200122182620 80 72 8.0 16.0 0.00 0.05 0.01 86 1014.9
20200122182120 80 71 7.0 16.0 0.00 0.05 0.01 87 1014.8
20200122181621 79 66 6.0 11.0 0.00 0.05 0.01 87 1014.9
20200122181120 79 62 6.0 11.0 0.00 0.05 0.01 87 1014.9
20200122180619 79 55 7.0 11.0 0.00 0.05 0.01 87 1014.9
20200122180121 79 68 7.0 12.0 0.00 0.05 0.01 87 1014.8
20200122175619 79 74 7.0 12.0 0.00 0.05 0.01 87 1014.7
20200122175120 79 75 7.0 13.0 0.00 0.05 0.01 88 1014.8
20200122174621 79 74 7.0 13.0 0.00 0.05 0.01 88 1014.8
20200122174120 79 68 6.0 12.0 0.01 0.05 0.01 88 1014.8
20200122173620 79 66 6.0 12.0 0.01 0.05 0.01 88 1014.8
20200122173121 79 62 7.0 13.0 0.01 0.05 0.01 89 1014.8
20200122172620 79 59 6.0 13.0 0.01 0.05 0.01 89 1014.9
20200122172120 79 71 6.0 13.0 0.01 0.05 0.01 89 1014.8
20200122171620 79 79 7.0 13.0 0.01 0.05 0.01 89 1014.8
20200122171120 79 78 7.0 14.0 0.01 0.05 0.01 89 1014.9